Helicity
-20 -11 10 52 75 110 49 59 -14 -31 -136 192 361 399 389 373 365 394 388 339 267 208 202 140 82 66 54 -44 111 99 112 88 87 148 112 102 98 70 65 70 57 60 58 62
-15 8 6 46 19 56 45 54 18 -33 -74 72 126 525 318 349 353 331 370 398 365 265 255 197 99 75 87 83 88 70 108 110 94 116 60 71 50 60 61 70 71 74 79 85
1 18 -17 1 54 43 24 -23 -33 -46 -54 29 51 281 164 267 253 274 262 313 349 353 267 237 174 97 138 108 82 111 124 141 148 121 107 106 51 29 58 71 39 39 50 81
-55 33 42 35 26 2 2 4 -9 10 -19 31 24 229 199 215 183 199 191 170 217 254 240 217 173 161 96 78 136 102 128 181 139 -47 105 130 89 59 26 20 29 1 80 66
29 -48 -72 35 39 38 12 27 4 25 47 45 28 124 142 190 160 134 94 109 112 179 175 157 171 158 110 115 78 79 160 165 104 86 169 301 123 51 12 45 83 130 94 124
34 14 9 48 82 68 47 95 119 87 31 -22 13 47 94 95 126 154 89 29 105 127 119 121 114 107 118 111 101 82 95 111 134 144 120 143 121 183 229 185 114 104 115 119
30 34 13 22 51 134 108 105 67 36 57 21 85 59 73 76 106 187 92 -16 16 118 144 117 96 91 121 120 115 110 98 99 99 109 106 98 114 124 117 136 122 130 137 129
125 154 50 30 43 97 82 81 72 13 22 50 71 51 84 53 58 63 124 91 14 83 75 48 45 124 119 110 117 122 110 106 106 110 109 107 106 117 119 111 113 110 121 129
209 160 56 25 16 44 101 81 93 97 121 80 84 64 44 21 81 91 112 86 81 132 96 67 68 70 111 117 135 126 127 143 148 145 148 136 127 117 115 113 119 120 131 150
173 182 84 35 31 1 46 69 105 117 64 83 96 87 62 120 119 134 144 146 124 124 93 86 106 97 137 164 143 146 137 132 135 141 153 164 144 137 136 141 130 140 171 203
193 224 126 40 20 3 -28 58 78 56 140 80 101 147 27 82 106 128 127 83 91 113 121 120 111 91 107 181 169 147 144 158 154 149 158 159 166 163 154 154 163 178 199 228
152 233 195 167 -2 -60 -38 -18 45 89 82 112 82 72 37 109 107 80 59 54 104 110 104 123 106 103 106 97 117 121 145 168 155 150 132 130 145 166 180 177 167 177 208 230
136 250 321 173 104 -46 -57 -91 -15 72 63 130 115 69 100 91 61 82 81 101 132 136 124 112 120 134 119 108 119 137 143 151 151 148 134 125 126 131 143 152 156 169 193 206
153 247 345 344 215 -45 -68 -82 -44 24 55 68 134 137 87 126 66 67 100 95 110 132 162 150 125 120 134 134 120 121 144 159 164 160 149 142 138 139 147 162 172 177 175 182
174 268 205 132 79 -0 -75 -43 -78 -92 31 54 71 94 94 26 53 71 39 95 140 190 205 185 156 138 135 125 119 110 110 109 109 116 128 132 141 155 163 168 171 182 192 183
97 152 130 150 73 4 -52 -44 -24 -8 57 22 13 18 20 68 70 108 89 59 100 160 197 205 131 101 80 63 50 44 47 48 61 73 81 108 135 160 172 192 196 205 215 208
78 96 106 91 29 11 66 28 -26 -35 -25 26 32 22 81 49 37 78 136 112 120 136 128 135 123 93 79 69 53 49 47 51 49 61 87 107 127 148 170 196 211 214 203 186
96 105 92 82 43 173 65 -25 -43 -42 -17 59 49 66 61 60 53 50 120 144 142 117 112 97 71 57 50 44 52 58 68 70 74 84 101 129 157 178 183 181 189 206 198 181
70 96 118 132 135 75 57 5 3 -28 -34 47 50 87 111 88 12 24 151 83 96 74 78 92 79 55 51 60 70 67 67 79 102 107 118 137 168 186 188 186 195 213 217 204
68 71 105 116 157 179 109 24 2 -3 12 26 62 78 99 87 63 109 171 84 90 109 96 92 92 84 98 92 72 57 57 68 74 100 129 142 147 174 179 187 195 194 193 198
79 86 122 132 139 84 54 46 40 69 26 -11 26 33 43 36 48 101 127 108 95 67 76 47 40 35 40 54 55 50 52 55 81 117 149 161 158 172 186 218 207 206 197 185
107 122 109 137 136 140 44 46 83 46 19 -2 11 34 44 53 49 45 83 50 41 44 42 40 29 36 38 41 51 56 60 68 82 121 158 183 172 186 200 191 193 166 147 131
83 98 119 146 141 71 74 71 58 38 26 13 -3 49 52 62 44 51 40 39 32 41 42 41 45 49 47 59 60 64 74 72 97 139 178 181 173 181 183 177 163 150 128 119
58 83 98 91 78 91 81 87 116 99 74 26 9 7 75 37 34 66 63 46 39 40 41 27 37 53 58 60 69 79 87 80 98 127 155 157 157 158 147 141 139 141 125 123
89 125 107 100 84 95 103 146 164 118 67 36 4 -15 -21 63 49 36 127 68 43 38 36 26 32 37 47 48 64 78 85 86 107 129 138 130 122 122 130 130 127 135 144 161
139 130 142 87 94 131 142 164 145 107 79 50 28 -32 -34 34 42 54 162 63 45 44 39 40 46 54 60 60 70 95 74 67 89 125 126 114 120 117 125 136 148 129 127 91
Wind_Speed
24 27 26 31 32 36 38 47 55 52 48 46 50 62 61 59 51 53 54 49 51 49 42 34 41 38 34 43 52 42 68 55 43 44 51 51 53 55 56 59 57 32 26 28
14 22 31 36 33 31 41 47 48 45 48 48 45 59 66 61 61 55 58 55 50 46 42 43 42 39 47 48 44 50 36 64 58 48 50 54 54 61 64 60 60 61 50 36
26 21 35 34 35 34 38 42 43 44 41 35 41 67 70 59 57 58 56 59 56 50 43 39 45 49 33 35 51 49 30 42 41 65 51 56 64 68 65 69 67 70 64 50
22 34 36 39 40 42 43 38 44 36 35 44 31 50 63 64 66 63 64 62 62 56 49 41 36 35 32 33 40 36 51 44 50 81 63 57 62 69 80 70 62 81 50 53
21 17 15 21 42 42 47 39 38 40 43 46 51 50 57 68 75 68 63 67 69 63 57 51 43 37 38 36 35 34 37 32 32 32 36 36 33 25 30 20 20 32 48 40
19 16 12 14 38 44 35 38 40 42 48 55 53 55 57 63 68 66 63 69 76 68 62 59 53 45 38 36 35 32 31 29 28 32 30 24 25 28 32 30 27 32 25 24
24 18 13 11 5 40 45 50 60 62 65 68 50 60 71 56 55 59 67 64 67 69 74 67 63 55 46 40 38 38 36 35 31 30 30 29 33 35 35 31 33 26 27 28
40 39 28 16 8 16 43 52 62 71 70 65 51 64 54 49 55 63 55 57 44 49 64 72 68 65 58 51 43 39 38 38 36 36 34 34 34 34 35 36 35 31 30 31
40 38 32 21 16 9 37 55 45 54 54 65 62 58 62 51 55 56 54 46 39 34 43 55 62 60 59 53 46 42 40 41 42 41 35 36 36 35 36 36 35 35 33 30
34 39 37 33 21 14 18 34 47 51 66 77 66 63 62 45 43 42 45 44 35 30 30 38 44 51 60 60 53 46 37 33 35 38 40 39 35 36 40 39 39 38 35 31
30 34 35 34 29 21 12 27 44 42 49 60 60 55 44 48 46 47 45 38 34 31 30 26 23 29 33 41 44 47 40 33 32 33 35 36 37 33 33 33 33 32 30 26
28 32 39 36 25 18 17 16 40 54 52 52 54 59 38 39 43 45 43 32 29 28 29 28 20 17 16 22 28 34 33 32 29 27 30 29 29 29 30 29 26 23 21 21
31 37 47 44 38 30 23 17 38 46 39 54 54 49 34 36 39 38 29 25 25 25 26 28 26 21 18 17 22 25 26 26 26 24 26 28 29 29 28 27 25 20 17 17
29 32 33 40 33 25 14 15 17 39 42 37 49 40 33 31 31 28 26 24 19 21 24 25 25 26 26 27 27 26 27 27 28 28 30 30 29 25 23 21 19 17 14 13
32 36 36 27 22 15 11 14 21 19 46 41 40 49 59 56 48 36 27 26 24 25 27 29 29 30 29 28 29 29 31 31 32 33 33 32 27 23 20 18 15 14 14 14
32 40 42 48 43 28 23 17 15 19 51 55 60 61 64 50 45 43 38 28 29 34 38 40 36 36 37 35 32 31 31 31 27 29 27 24 22 19 20 18 16 17 18 20
36 42 49 57 46 44 41 31 23 20 14 46 51 50 49 58 60 57 48 49 50 52 51 47 46 43 42 44 44 42 39 35 33 30 29 28 26 25 20 19 18 20 21 22
37 40 44 51 49 59 37 33 27 26 23 42 48 53 58 62 64 64 59 63 64 58 54 51 46 46 43 42 46 46 46 45 40 37 33 31 30 29 27 25 24 23 22 22
36 36 43 51 50 39 40 36 29 20 21 41 42 44 49 52 48 46 48 51 53 49 46 48 51 54 54 55 55 55 54 52 47 43 40 36 32 32 31 29 26 24 22 22
33 36 38 42 50 53 38 33 26 24 19 36 42 44 44 44 40 43 47 44 45 48 50 52 54 57 58 58 58 58 59 55 56 52 42 35 30 29 28 27 25 25 23 20
30 31 36 36 41 33 29 29 29 32 26 20 42 44 45 43 42 50 48 42 42 45 45 47 50 54 56 58 57 59 57 56 50 42 37 32 27 25 24 21 23 22 22 23
28 33 34 37 39 42 32 33 34 26 19 14 22 46 50 50 48 48 47 45 45 44 44 46 49 51 52 54 53 53 52 47 38 30 26 22 19 19 17 17 20 20 21 23
25 26 29 26 29 27 28 25 24 23 19 15 10 34 54 53 52 52 51 48 45 46 46 47 47 48 49 51 49 49 46 37 28 22 18 16 17 19 17 18 19 21 24 27
20 21 22 26 26 21 25 25 23 22 22 14 13 13 50 57 56 56 53 50 46 43 43 43 42 43 45 45 43 41 38 31 23 16 15 14 13 14 16 18 19 21 22 25
21 25 20 16 14 19 26 26 27 22 17 12 9 9 12 55 57 56 57 52 45 43 42 40 39 39 40 40 39 37 32 25 20 16 13 13 13 14 16 22 23 23 25 24
17 18 20 22 26 28 29 31 30 31 31 22 15 8 5 50 55 54 56 47 43 40 39 40 38 37 38 38 37 36 32 24 18 17 18 19 19 21 22 23 26 28 30 27
Wind_Direction
219 232 241 237 251 251 241 231 253 267 255 248 241 238 234 239 240 237 239 245 245 242 247 246 238 237 236 233 235 243 234 238 244 244 245 246 247 250 252 249 252 260 264 272
259 298 261 249 266 273 249 249 259 258 237 245 248 238 236 241 243 244 245 247 250 251 249 245 247 246 232 239 246 237 231 235 245 245 253 257 255 253 251 255 256 256 264 272
122 326 283 278 272 272 261 258 256 258 247 274 258 239 237 244 248 248 248 249 253 252 251 253 253 251 236 234 244 240 235 247 252 248 261 261 261 254 257 255 262 258 262 267
130 312 297 289 281 268 268 284 274 279 269 264 267 247 244 245 245 247 249 249 249 252 254 256 254 253 249 242 249 243 253 250 260 235 256 258 262 250 252 266 283 247 275 273
99 123 138 326 290 282 274 283 277 272 268 264 254 255 249 247 245 248 251 252 249 250 253 255 258 259 259 260 258 258 258 238 228 247 256 244 214 233 200 260 254 275 281 287
85 107 108 349 300 282 283 280 276 270 262 257 251 254 260 249 250 253 256 258 248 249 252 256 259 264 261 261 261 262 262 259 244 253 254 248 238 262 272 278 284 287 292 299
54 67 87 69 47 291 276 268 262 258 253 251 264 254 252 253 258 257 258 263 256 254 255 256 259 259 260 258 261 263 265 265 262 261 263 266 271 276 281 286 289 294 296 301
49 44 55 68 62 332 277 266 259 255 252 253 262 255 262 267 259 258 263 268 269 260 258 256 257 257 258 259 261 262 266 266 267 270 270 272 277 282 285 286 290 291 293 294
47 47 51 62 60 44 293 266 271 263 265 257 258 265 268 271 265 261 260 269 266 270 267 261 257 258 257 257 258 263 269 270 270 271 274 276 280 281 283 285 288 289 291 293
52 36 44 48 60 64 324 291 269 264 256 254 260 262 258 271 271 269 266 269 268 270 280 271 266 262 256 253 258 262 268 270 270 272 274 278 283 284 285 285 285 286 289 290
52 47 40 41 56 61 79 297 274 275 265 255 254 259 274 271 273 273 270 273 274 272 281 290 291 280 267 254 256 261 265 266 271 274 278 282 284 288 289 289 289 289 289 286
57 47 32 32 49 71 87 355 283 266 265 263 262 261 286 289 288 285 274 274 278 279 282 291 313 313 292 268 263 262 265 267 274 280 284 287 289 291 291 294 293 295 293 294
56 48 35 36 52 69 94 79 292 279 282 261 258 264 291 294 298 293 280 281 282 286 288 291 297 310 309 299 279 270 270 270 273 278 282 285 289 291 292 294 295 297 297 298
60 51 41 32 35 52 75 134 296 290 283 280 262 265 272 297 313 309 292 286 292 294 292 300 305 298 296 293 288 285 278 274 274 277 281 284 288 291 291 291 292 294 295 297
64 46 44 38 35 59 102 151 171 212 279 283 285 270 267 279 283 288 292 288 289 289 297 300 299 299 295 294 294 291 286 281 279 279 281 282 286 288 288 289 289 291 294 298
63 56 54 51 53 72 94 111 160 179 270 278 275 275 267 280 284 278 278 284 285 287 289 295 297 294 292 296 298 298 294 293 294 288 289 288 287 281 279 281 283 286 291 296
69 64 55 48 53 69 74 76 95 115 82 298 289 281 280 274 272 270 273 276 277 281 281 286 287 288 290 288 288 288 291 293 290 289 283 281 281 280 277 277 280 284 290 296
76 68 61 55 57 55 70 72 86 93 75 335 298 287 277 274 275 272 271 273 275 279 280 283 284 287 292 296 295 291 288 285 286 284 284 280 276 274 276 279 282 285 290 295
72 74 60 53 53 58 65 65 71 90 77 342 325 303 289 293 287 291 288 283 282 287 288 285 286 286 288 289 290 290 284 282 281 281 280 278 277 276 274 274 275 281 286 293
77 71 65 57 49 49 62 60 69 90 73 357 315 316 301 306 298 291 301 290 287 288 286 287 287 287 289 292 293 290 285 283 280 278 278 279 277 275 271 272 272 281 283 286
75 71 61 58 52 57 64 58 74 59 61 86 323 312 315 315 313 299 298 293 292 292 295 294 295 290 292 292 292 288 287 284 285 285 280 278 278 275 275 274 278 278 279 287
77 69 63 63 55 50 65 63 55 57 73 73 25 318 308 308 307 309 303 297 293 296 298 300 299 298 300 298 295 291 290 292 291 288 282 278 279 278 276 273 275 276 280 286
76 86 67 76 62 62 52 45 58 62 53 50 44 342 304 299 298 301 298 295 302 298 300 305 307 303 300 302 301 295 297 298 296 287 278 277 280 279 275 271 272 276 282 287
92 95 75 62 67 61 51 51 53 54 43 37 23 1 313 292 293 290 293 291 298 305 309 313 318 315 313 315 315 311 306 304 299 290 282 284 285 283 280 280 277 280 284 289
85 87 78 67 61 53 45 47 44 34 22 8 348 339 334 299 291 288 290 290 301 306 309 316 321 323 322 326 328 324 319 317 308 300 297 298 298 291 283 282 281 283 288 293
103 88 75 61 64 52 43 37 26 20 19 13 2 314 245 300 290 286 282 293 300 308 318 317 320 324 325 329 328 327 330 334 329 313 305 299 297 295 291 287 289 290 294 296